Weather History for KEVM - April, 2014

Change the Weather History Date:

Monday, April 7, 2014

  Actual Average Record
Temperature  
Mean Temperature 38 °F -  
Max Temperature 51 °F 44 °F 80 °F (1991)
Min Temperature 26 °F 24 °F 5 °F (1997)
Degree Days  
Heating Degree Days 26    
Moisture  
Dew Point 31 °F    
Average Humidity 80    
Maximum Humidity 100    
Minimum Humidity 47    
Precipitation  
Precipitation 0.05 in - - ()
Sea Level Pressure  
Sea Level Pressure 29.79 in    
Wind  
Wind Speed 3 mph (West)    
Max Wind Speed 13 mph    
Max Gust Speed 20 mph    
Visibility 8 miles    
Events Rain    
Averages and records for this station are not official NWS values.
T = Trace of Precipitation, MM = Missing Value Source: NWS Daily Summary

Daily Weather History Graph

Daily Weather History Graph

Search for Another Location

Airport or City:

Trip Planner

Search our weather history database for the weather conditions in past years. The results will help you decide how hot, cold, wet, or windy it might be!

Date:

Astronomy

Apr. 07, 2014 Rise Set
Actual Time 6:36 AM CDT 7:48 PM CDT
Civil Twilight 6:05 AM CDT 8:19 PM CDT
Nautical Twilight 5:27 AM CDT 8:57 PM CDT
Astronomical Twilight 4:47 AM CDT 9:38 PM CDT
Moon 12:22 PM CDT (4/7) 2:36 AM CDT (4/7)
Length of Visible Light 14h 14m
Length of Day
13h 11m
First Quarter, 53% of the Moon is Illuminated
Apr 7
First Quarter
Apr 15
Full
Apr 22
Last Quarter
Apr 29
New
May 6
First Quarter

Hourly Weather History & Observations

Time (CDT) Temp. Windchill Dew Point Humidity Pressure Visibility Wind Dir Wind Speed Gust Speed Precip Events Conditions
12:14 AM 30.2 °F - 28.4 °F 93% 29.85 in 10.0 mi Calm Calm - N/A   Clear
12:34 AM 30.2 °F - 28.4 °F 93% 29.84 in 10.0 mi Calm Calm - N/A   Clear
12:53 AM 30.2 °F 26.7 °F 28.4 °F 93% 29.83 in 10.0 mi NE 3.5 mph - N/A   Clear
1:14 AM 28.4 °F 24.6 °F 26.6 °F 93% 29.83 in 7.0 mi NNE 3.5 mph - N/A   Clear
1:34 AM 28.4 °F - 26.6 °F 93% 29.83 in 7.0 mi Calm Calm - N/A   Clear
1:53 AM 28.4 °F - 26.6 °F 93% 29.83 in 7.0 mi Calm Calm - N/A   Clear
2:14 AM 26.6 °F - 26.6 °F 100% 29.82 in 7.0 mi Calm Calm - N/A   Clear
2:34 AM 26.6 °F - 26.6 °F 100% 29.82 in 7.0 mi Calm Calm - N/A   Clear
2:53 AM 28.4 °F - 26.6 °F 93% 29.81 in 10.0 mi Calm Calm - N/A   Clear
3:14 AM 26.6 °F - 26.6 °F 100% 29.81 in 5.0 mi Calm Calm - N/A   Clear
3:34 AM 26.6 °F - 26.6 °F 100% 29.81 in 10.0 mi Calm Calm - N/A   Clear
3:53 AM 26.6 °F - 26.6 °F 100% 29.80 in 10.0 mi Calm Calm - N/A   Mostly Cloudy
4:14 AM 28.4 °F - 26.6 °F 93% 29.81 in 10.0 mi Calm Calm - N/A   Overcast
4:34 AM 28.4 °F - 26.6 °F 93% 29.81 in 10.0 mi Calm Calm - N/A   Overcast
4:53 AM 30.2 °F - 28.4 °F 93% 29.80 in 7.0 mi Calm Calm - N/A   Overcast
5:14 AM 30.2 °F 26.7 °F 28.4 °F 93% 29.80 in 7.0 mi NE 3.5 mph - N/A   Overcast
5:34 AM 32.0 °F 25.6 °F 32.0 °F 100% 29.78 in 5.0 mi NNE 6.9 mph - N/A   Mostly Cloudy
5:53 AM 32.0 °F 24.2 °F 32.0 °F 100% 29.79 in 7.0 mi South 9.2 mph - N/A   Mostly Cloudy
6:14 AM 32.0 °F 27.5 °F 32.0 °F 100% 29.81 in 7.0 mi SSW 4.6 mph - N/A   Overcast
6:34 AM 32.0 °F - 32.0 °F 100% 29.79 in 5.0 mi Calm Calm - N/A   Overcast
6:54 AM 32.0 °F - 32.0 °F 100% 29.79 in 3.0 mi Calm Calm - N/A   Overcast
7:13 AM 33.8 °F - 32.0 °F 93% 29.79 in 4.0 mi Calm Calm - N/A   Overcast
7:34 AM 33.8 °F 29.6 °F 32.0 °F 93% 29.79 in 4.0 mi South 4.6 mph - N/A   Overcast
7:54 AM 32.0 °F - 32.0 °F 100% 29.79 in 2.0 mi Calm Calm - N/A   Drizzle
8:13 AM 32.0 °F - 32.0 °F 100% 29.80 in 2.5 mi Calm Calm - N/A   Light Drizzle
8:34 AM 33.8 °F 30.8 °F 33.8 °F 100% 29.80 in 1.5 mi South 3.5 mph - 0.01 in   Drizzle
8:54 AM 33.8 °F 29.6 °F 33.8 °F 100% 29.80 in 2.0 mi SSW 4.6 mph - 0.01 in Rain Light Rain
9:14 AM 33.8 °F - 33.8 °F 100% 29.80 in 1.2 mi Calm Calm - 0.02 in Rain Light Rain
9:33 AM 33.8 °F 29.6 °F 33.8 °F 100% 29.80 in 1.0 mi SSE 4.6 mph - 0.03 in Rain Light Rain
9:54 AM 33.8 °F 30.8 °F 33.8 °F 100% 29.81 in 2.0 mi SSE 3.5 mph - 0.03 in   Light Drizzle
10:14 AM 35.6 °F 32.8 °F 35.6 °F 100% 29.81 in 2.0 mi SSW 3.5 mph - 0.01 in Rain Light Rain
10:33 AM 35.6 °F 31.7 °F 35.6 °F 100% 29.81 in 1.8 mi SW 4.6 mph - 0.01 in   Light Drizzle
10:54 AM 35.6 °F 32.8 °F 35.6 °F 100% 29.81 in 2.5 mi SW 3.5 mph - 0.01 in   Overcast
11:14 AM 35.6 °F 31.7 °F 35.6 °F 100% 29.81 in 2.0 mi WSW 4.6 mph - N/A   Overcast
11:33 AM 35.6 °F 32.8 °F 35.6 °F 100% 29.81 in 3.0 mi WSW 3.5 mph - N/A   Overcast
11:54 AM 35.6 °F 32.8 °F 35.6 °F 100% 29.81 in 3.0 mi SSW 3.5 mph - N/A   Overcast
12:14 PM 39.2 °F 37.0 °F 37.4 °F 93% 29.81 in 4.0 mi SSW 3.5 mph - N/A   Overcast
12:33 PM 39.2 °F 37.0 °F 37.4 °F 93% 29.80 in 5.0 mi SW 3.5 mph - N/A   Overcast
12:54 PM 42.8 °F 41.1 °F 39.2 °F 87% 29.79 in 5.0 mi WSW 3.5 mph - N/A   Mostly Cloudy
1:14 PM 42.8 °F 40.1 °F 39.2 °F 87% 29.79 in 10.0 mi SW 4.6 mph - N/A   Scattered Clouds
1:34 PM 42.8 °F 40.1 °F 37.4 °F 81% 29.78 in 10.0 mi SW 4.6 mph - N/A   Clear
1:54 PM 44.6 °F - 37.4 °F 76% 29.78 in 10.0 mi Calm Calm - N/A   Scattered Clouds
2:13 PM 44.6 °F 43.1 °F 37.4 °F 76% 29.77 in 10.0 mi SW 3.5 mph - N/A   Scattered Clouds
2:34 PM 46.4 °F 44.3 °F 35.6 °F 66% 29.76 in 10.0 mi SW 4.6 mph - N/A   Mostly Cloudy
3:13 PM 46.4 °F - 33.8 °F 62% 29.76 in 10.0 mi Calm Calm - N/A Rain Light Rain
3:34 PM 46.4 °F 43.5 °F 35.6 °F 66% 29.75 in 10.0 mi WSW 5.8 mph - N/A   Scattered Clouds
3:53 PM 46.4 °F - 35.6 °F 66% 29.75 in 10.0 mi Calm Calm - N/A   Scattered Clouds
4:14 PM 50.0 °F - 35.6 °F 58% 29.74 in 10.0 mi SW 3.5 mph - N/A   Scattered Clouds
4:34 PM 50.0 °F - 32.0 °F 50% 29.74 in 10.0 mi NNW 4.6 mph - N/A   Scattered Clouds
4:53 PM 51.8 °F - 32.0 °F 47% 29.74 in 10.0 mi NNW 10.4 mph - N/A   Scattered Clouds
5:14 PM 51.8 °F - 32.0 °F 47% 29.74 in 10.0 mi NNW 9.2 mph - N/A   Scattered Clouds
5:34 PM 50.0 °F - 30.2 °F 47% 29.75 in 10.0 mi WNW 9.2 mph 19.6 mph N/A   Clear
5:53 PM 50.0 °F - 30.2 °F 47% 29.75 in 10.0 mi WNW 12.7 mph 17.3 mph N/A   Scattered Clouds
6:14 PM 50.0 °F - 30.2 °F 47% 29.75 in 10.0 mi NW 11.5 mph 16.1 mph N/A   Scattered Clouds
6:34 PM 50.0 °F - 30.2 °F 47% 29.75 in 10.0 mi WNW 5.8 mph - N/A   Scattered Clouds
6:53 PM 50.0 °F - 30.2 °F 47% 29.76 in 10.0 mi NW 10.4 mph - N/A   Scattered Clouds
7:14 PM 46.4 °F 43.5 °F 28.4 °F 50% 29.76 in 10.0 mi NNW 5.8 mph - N/A   Clear
7:34 PM 44.6 °F 39.7 °F 28.4 °F 53% 29.76 in 10.0 mi NW 9.2 mph - N/A   Clear
7:53 PM 44.6 °F 40.2 °F 28.4 °F 53% 29.77 in 10.0 mi NW 8.1 mph - N/A   Clear
8:14 PM 44.6 °F 40.7 °F 28.4 °F 53% 29.77 in 10.0 mi NW 6.9 mph - N/A   Clear
8:34 PM 42.8 °F 38.6 °F 28.4 °F 57% 29.78 in 10.0 mi NW 6.9 mph - N/A   Clear
8:53 PM 42.8 °F 38.6 °F 26.6 °F 53% 29.78 in 10.0 mi NW 6.9 mph - N/A   Clear
9:14 PM 42.8 °F 38.0 °F 26.6 °F 53% 29.78 in 10.0 mi NW 8.1 mph - N/A   Clear
9:34 PM 42.8 °F 38.6 °F 26.6 °F 53% 29.79 in 10.0 mi NW 6.9 mph - N/A   Clear
9:53 PM 42.8 °F 37.0 °F 28.4 °F 57% 29.78 in 10.0 mi NW 10.4 mph - N/A   Clear
10:14 PM 41.0 °F 34.7 °F 28.4 °F 61% 29.78 in 10.0 mi NW 10.4 mph - N/A   Clear
10:34 PM 39.2 °F 33.0 °F 28.4 °F 65% 29.79 in 10.0 mi NW 9.2 mph - N/A   Clear
10:53 PM 39.2 °F 31.6 °F 28.4 °F 65% 29.79 in 10.0 mi NW 12.7 mph 17.3 mph N/A   Clear
11:14 PM 39.2 °F 32.5 °F 30.2 °F 70% 29.79 in 10.0 mi NW 10.4 mph 18.4 mph N/A   Scattered Clouds
11:33 PM 39.2 °F 33.0 °F 30.2 °F 70% 29.79 in 10.0 mi NW 9.2 mph - N/A   Mostly Cloudy
11:54 PM 37.4 °F 31.4 °F 30.2 °F 75% 29.79 in 10.0 mi NW 8.1 mph - N/A   Mostly Cloudy